Weather History for Corpus Christi, TX

Change the Weather History Date:

Friday, January 4, 2013

  Actual Average Record
Temperature  
Mean Temperature 50 °F 57 °F  
Max Temperature 52 °F 66 °F 88 °F (1997)
Min Temperature 47 °F 47 °F 24 °F (1947)
Degree Days  
Heating Degree Days 15 9  
Month to date heating degree days 54 36  
Since 1 July heating degree days 229 387  
Cooling Degree Days 0 1  
Month to date cooling degree days 0 4  
Year to date cooling degree days 0 4  
Moisture  
Dew Point 36 °F    
Average Humidity 60    
Maximum Humidity 65    
Minimum Humidity 54    
Precipitation  
Precipitation T in 0.06 in 3.25 in (1958)
Month to date precipitation 0.24 0.22  
Year to date precipitation 0.24 0.22  
Snow  
Snow 0.00 in - - ()
Month to date snowfall 0.0  
Since 1 July snowfall 0.0  
Snow Depth 0.00 in    
Sea Level Pressure  
Sea Level Pressure 30.39 in    
Wind  
Wind Speed 14 mph (NNE)    
Max Wind Speed 22 mph    
Max Gust Speed 31 mph    
Visibility 10 miles    
Events      
T = Trace of Precipitation, MM = Missing Value Source: NWS Daily Summary

Daily Weather History Graph

Daily Weather History Graph

Search for Another Location

Airport:

Trip Planner

Search our weather history database for the weather conditions in past years. The results will help you decide how hot, cold, wet, or windy it might be!

Date:

Astronomy

Jan. 04, 2013 Rise Set
Actual Time 7:21 AM CST 5:48 PM CST
Civil Twilight 6:56 AM CST 6:14 PM CST
Nautical Twilight 6:27 AM CST 6:43 PM CST
Astronomical Twilight 5:58 AM CST 7:11 PM CST
Moon No Moon Rise 11:45 AM CST (1/4)
Length of Visible Light 11h 18m
Length of Day
10h 27m
Waning Gibbous, 55% of the Moon is Illuminated
Jan 4
Waning Gibbous
Jan 4
Last Quarter
Jan 11
New
Jan 18
First Quarter
Jan 26
Full

Hourly Weather History & Observations

Time (CST) Temp. Dew Point Humidity Pressure Visibility Wind Dir Wind Speed Gust Speed Precip Events Conditions
12:51 AM 48.0 °F 36.0 °F 63% 30.38 in 10.0 mi North 9.2 mph - N/A   Overcast
1:51 AM 46.9 °F 35.1 °F 63% 30.38 in 10.0 mi NNW 8.1 mph - N/A   Overcast
2:51 AM 48.2 °F 35.6 °F 62% 30.36 in 10.0 mi North 13.8 mph - N/A   Overcast
3:51 AM 48.0 °F 35.1 °F 61% 30.38 in 10.0 mi North 17.3 mph - N/A   Overcast
4:51 AM 48.0 °F 35.1 °F 61% 30.38 in 10.0 mi North 18.4 mph - N/A   Overcast
5:51 AM 48.0 °F 36.0 °F 63% 30.39 in 10.0 mi North 12.7 mph - N/A   Overcast
6:51 AM 48.0 °F 36.0 °F 63% 30.39 in 10.0 mi North 13.8 mph - 0.00 in   Light Drizzle
7:51 AM 48.9 °F 37.0 °F 64% 30.42 in 10.0 mi NE 12.7 mph - 0.00 in   Overcast
8:47 AM 48.2 °F 35.6 °F 62% 30.44 in 10.0 mi NNE 19.6 mph 26.5 mph 0.00 in   Light Drizzle
8:51 AM 48.9 °F 36.0 °F 61% 30.43 in 10.0 mi NNE 18.4 mph 25.3 mph 0.00 in   Light Drizzle
9:51 AM 50.0 °F 36.0 °F 59% 30.44 in 10.0 mi NNE 19.6 mph - 0.00 in   Light Drizzle
10:51 AM 51.1 °F 36.0 °F 56% 30.44 in 10.0 mi NNE 16.1 mph 25.3 mph 0.00 in   Overcast
11:51 AM 51.1 °F 36.0 °F 56% 30.42 in 10.0 mi NNE 19.6 mph - N/A   Overcast
12:51 PM 52.0 °F 36.0 °F 54% 30.39 in 10.0 mi NNE 17.3 mph - N/A   Overcast
1:51 PM 51.8 °F 35.6 °F 54% 30.37 in 10.0 mi NNE 15.0 mph - N/A   Overcast
2:51 PM 52.0 °F 35.1 °F 53% 30.36 in 10.0 mi NNE 15.0 mph - N/A   Overcast
3:51 PM 52.0 °F 35.1 °F 53% 30.35 in 10.0 mi North 16.1 mph - N/A   Overcast
4:51 PM 51.1 °F 35.1 °F 54% 30.36 in 10.0 mi North 15.0 mph - N/A   Overcast
5:51 PM 51.1 °F 36.0 °F 56% 30.35 in 10.0 mi NNE 13.8 mph - N/A   Overcast
6:51 PM 51.1 °F 36.0 °F 56% 30.37 in 10.0 mi North 10.4 mph - N/A   Overcast
7:51 PM 50.0 °F 37.0 °F 61% 30.37 in 10.0 mi North 12.7 mph - N/A   Overcast
8:51 PM 50.0 °F 37.0 °F 61% 30.38 in 10.0 mi North 9.2 mph - N/A   Overcast
9:51 PM 50.0 °F 37.0 °F 61% 30.38 in 10.0 mi North 10.4 mph - N/A   Overcast
10:51 PM 50.0 °F 37.0 °F 61% 30.37 in 10.0 mi North 12.7 mph - N/A   Overcast
11:51 PM 50.0 °F 37.0 °F 61% 30.36 in 10.0 mi North 15.0 mph - N/A   Overcast